Terug naar catalogus

PALAPA B4

ActiefCommunicatieGEO
NORAD 21964·PAYLOAD·🇮🇩 Indonesia

Gelanceerd May 14, 1992 vanaf Cape Canaveral Space Force Station

Loading…

TLE

VersSource: Space-Track

Epoch: Sep 14, 2026, 06:37 UTC

1 21964U 92027A   26257.27594431 -.00000255  00000-0  00000-0 0  9992
2 21964  13.3275  16.6172 0000214 335.6507  29.2111  0.99936074 48087

Volg PALAPA B4 in realtime met AllMySat

Download on the App Store